Lid_Strength_Index
2 3 2 2 3 4 4 4 4 5 5 6 6 5 6 7 7 7 7 7 6 7
2 2 3 3 3 4 4 4 5 6 6 6 6 6 6 7 8 7 7 7 7 7
2 3 3 4 5 4 4 5 6 6 7 6 7 7 7 8 8 8 7 7 7 7
4 4 4 5 5 4 5 6 7 7 7 7 8 7 8 8 8 8 8 8 8 8
5 5 5 5 5 5 6 6 6 7 8 7 7 8 8 8 8 8 8 8 7 7
6 6 5 5 7 6 6 6 7 7 8 8 8 8 8 8 8 8 8 7 7 7
6 6 8 8 7 7 6 7 8 8 8 8 8 8 8 7 7 7 6 6 6 6
7 9 8 7 6 6 7 7 8 9 8 8 8 8 8 7 6 7 6 5 5 5
8 8 7 7 7 8 8 8 9 8 9 9 8 8 7 5 6 5 5 5 5 4
7 7 7 7 8 9 9 9 9 9 9 9 7 8 8 6 6 6 6 6 6 6
6 6 6 5 8 8 9 9 9 9 9 9 8 9 9 6 5 6 6 7 6 7
6 6 6 7 7 8 8 9 9 9 9 9 9 10 10 8 6 6 6 6 6 7
6 6 7 7 7 6 6 6 6 8 8 8 8 10 10 9 8 8 8 7 7 8
6 7 7 7 7 7 7 7 6 6 6 6 8 8 10 11 8 8 8 8 8 7